M I D A S
Marine Information and Data Acquisition System
Tripno 1320 of the Zeeleeuw from 2007-08-08 08:30:00 to 2007-08-08 14:00:00
Back to CruiseResearch ActivitiesStationsMapUnderway DataData graphs

EquipmentUnitsComment
TimeDGPSUTC
LatitudeDGPSDM.mWGS84
LongitudeDGPSDM.mWGS84
HeadingGyrodeg 
SOGDGPSknotsSpeed over ground
COGDGPSdegCourse over ground
DepthEcho soundermeters200 kHz
Missing or incorrect values are displayed as -999
Navigation data collected by the RV Zeeleeuw from 2007-08-08 08:30:00 to 2007-08-08 14:00:00
                                                                                    Next 1000 lines
Time Latitude Longitude Heading SOG COG Depth
2007-08-08 08:30:06 51°13.602 2°56.098 125.5 0.3 231 9.2
2007-08-08 08:30:11 51°13.601 2°56.098 125.6 0.1 254 9.3
2007-08-08 08:30:16 51°13.601 2°56.098 126.5 0.2 216 9.6
2007-08-08 08:30:21 51°13.601 2°56.098 127.4 0.1 212 9.5
2007-08-08 08:30:26 51°13.601 2°56.098 128.4 0.2 208 9.8
2007-08-08 08:30:36 51°13.601 2°56.098 130.2 0.1 230 10
2007-08-08 08:30:41 51°13.601 2°56.098 130.5 0.1 57 9.9
2007-08-08 08:30:47 51°13.602 2°56.099 130.4 0.2 71 10
2007-08-08 08:30:51 51°13.602 2°56.099 130.1 0.1 67 9.9
2007-08-08 08:30:56 51°13.602 2°56.099 130.1 0.2 71 9.8
2007-08-08 08:31:01 51°13.602 2°56.1 130 0.3 55 9.5
2007-08-08 08:31:06 51°13.602 2°56.1 129.4 0.1 88 9.5
2007-08-08 08:31:11 51°13.602 2°56.1 128.2 0.2 74 9.4
2007-08-08 08:31:16 51°13.602 2°56.1 127.1 0.1 74 9.2
2007-08-08 08:31:21 51°13.601 2°56.1 126 0.1 186 9.2
2007-08-08 08:31:31 51°13.601 2°56.1 123.4 0.1 196 9.3
2007-08-08 08:31:41 51°13.601 2°56.1 121.9 0.1 208 9.3
2007-08-08 08:31:51 51°13.602 2°56.1 120.3 0.1 165 9.4
2007-08-08 08:31:56 51°13.602 2°56.1 119.3 0.1 129 9.4
2007-08-08 08:32:01 51°13.602 2°56.1 118.2 0.1 177 9.4
2007-08-08 08:32:11 51°13.602 2°56.1 115.9 0.1 204 9.4
2007-08-08 08:32:21 51°13.601 2°56.1 114.1 0.1 283 9.6
2007-08-08 08:32:26 51°13.601 2°56.099 113.6 0.2 296 9.5
2007-08-08 08:32:31 51°13.601 2°56.099 113.2 0.3 275 9.6
2007-08-08 08:32:36 51°13.602 2°56.097 113 0.6 298 9.8
2007-08-08 08:32:41 51°13.602 2°56.095 112.9 0.8 289 9.9
2007-08-08 08:32:46 51°13.602 2°56.093 112.8 1.1 295 10
2007-08-08 08:32:51 51°13.603 2°56.091 113 1.2 291 10.1
2007-08-08 08:32:56 51°13.604 2°56.089 113.4 1.3 294 10.2
2007-08-08 08:33:01 51°13.605 2°56.085 113.9 1.7 295 10.2
2007-08-08 08:33:06 51°13.606 2°56.081 114.6 2.2 294 -999
2007-08-08 08:33:11 51°13.607 2°56.076 115 2.4 293 -999
2007-08-08 08:33:16 51°13.608 2°56.071 115.1 2.7 293 -999
2007-08-08 08:33:21 51°13.61 2°56.065 115 3 293 -999
2007-08-08 08:33:27 51°13.612 2°56.057 114.6 3.2 292 -999
2007-08-08 08:33:31 51°13.613 2°56.052 114.4 3.5 291 -999
2007-08-08 08:33:36 51°13.615 2°56.044 114.1 3.6 291 -999
2007-08-08 08:33:41 51°13.617 2°56.037 114.1 3.7 291 -999
2007-08-08 08:33:46 51°13.619 2°56.029 114.6 3.8 290 -999
2007-08-08 08:33:51 51°13.621 2°56.02 115.4 3.9 291 -999
2007-08-08 08:33:57 51°13.623 2°56.01 116.4 4.1 292 -999
2007-08-08 08:34:01 51°13.625 2°56.003 117.9 4.2 293 -999
2007-08-08 08:34:06 51°13.627 2°55.994 119.2 4.3 294 -999
2007-08-08 08:34:11 51°13.63 2°55.986 120.4 4.4 296 -999
2007-08-08 08:34:17 51°13.634 2°55.975 121.9 4.5 297 -999
2007-08-08 08:34:22 51°13.637 2°55.966 123.2 4.5 298 -999
2007-08-08 08:34:26 51°13.639 2°55.959 124.3 4.6 299 -999
2007-08-08 08:34:31 51°13.642 2°55.95 125.3 4.6 301 -999
2007-08-08 08:34:37 51°13.646 2°55.94 126.9 4.7 302 -999
2007-08-08 08:34:42 51°13.65 2°55.931 128.5 4.7 303 -999
2007-08-08 08:34:46 51°13.653 2°55.924 129.5 4.8 304 -999
2007-08-08 08:34:51 51°13.657 2°55.915 130.4 5 306 -999
2007-08-08 08:34:56 51°13.661 2°55.905 131.1 5.2 306 -999
2007-08-08 08:35:02 51°13.667 2°55.894 131.5 5.3 308 -999
2007-08-08 08:35:06 51°13.67 2°55.887 131.9 5.4 308 -999
2007-08-08 08:35:11 51°13.675 2°55.877 132 5.5 309 -999
2007-08-08 08:35:16 51°13.679 2°55.868 132 5.5 309 -999
2007-08-08 08:35:21 51°13.684 2°55.858 132 5.6 309 -999
2007-08-08 08:35:27 51°13.69 2°55.847 132.1 5.7 310 -999
2007-08-08 08:35:31 51°13.694 2°55.839 132.3 5.8 309 -999
2007-08-08 08:35:36 51°13.699 2°55.829 132.4 5.8 309 -999
2007-08-08 08:35:41 51°13.705 2°55.819 132.1 5.8 309 -999
2007-08-08 08:35:47 51°13.711 2°55.807 132 6 310 -999
2007-08-08 08:35:51 51°13.716 2°55.798 132.3 6.1 309 -999
2007-08-08 08:35:56 51°13.721 2°55.788 132.5 6.1 309 -999
2007-08-08 08:36:01 51°13.726 2°55.777 132.8 6.2 309 -999
2007-08-08 08:36:06 51°13.732 2°55.767 132.9 6.2 310 -999
2007-08-08 08:36:11 51°13.737 2°55.756 133.4 6.3 310 -999
2007-08-08 08:36:16 51°13.743 2°55.746 134.6 6.3 311 -999
2007-08-08 08:36:21 51°13.749 2°55.735 135.9 6.4 312 -999
2007-08-08 08:36:26 51°13.755 2°55.725 137.1 6.4 313 -999
2007-08-08 08:36:31 51°13.761 2°55.714 138.7 6.4 315 -999
2007-08-08 08:36:37 51°13.769 2°55.703 140.8 6.5 316 -999
2007-08-08 08:36:42 51°13.775 2°55.693 143.4 6.4 319 -999
2007-08-08 08:36:46 51°13.781 2°55.686 146.1 6.4 320 -999
2007-08-08 08:36:51 51°13.788 2°55.677 148 6.4 322 -999
2007-08-08 08:36:56 51°13.795 2°55.669 150 6.4 324 -999
2007-08-08 08:37:01 51°13.802 2°55.661 152.3 6.4 326 -999
2007-08-08 08:37:06 51°13.809 2°55.653 154.6 6.3 328 -999
2007-08-08 08:37:11 51°13.817 2°55.647 156.7 6.3 331 -999
2007-08-08 08:37:16 51°13.825 2°55.64 159.6 6.3 334 -999
2007-08-08 08:37:22 51°13.834 2°55.634 163.4 6.1 337 -999
2007-08-08 08:37:27 51°13.842 2°55.63 167.6 6 341 -999
2007-08-08 08:37:31 51°13.848 2°55.627 170 5.9 345 -999
2007-08-08 08:37:36 51°13.856 2°55.624 173.4 5.8 348 5.5
2007-08-08 08:37:41 51°13.864 2°55.622 177.6 5.7 352 -999
2007-08-08 08:37:46 51°13.872 2°55.621 182.7 5.6 357 -999
2007-08-08 08:37:51 51°13.879 2°55.621 186.1 5.4 1 -999
2007-08-08 08:37:56 51°13.886 2°55.622 190.1 5.1 4 -999
2007-08-08 08:38:01 51°13.893 2°55.623 194.4 4.8 8 -999
2007-08-08 08:38:06 51°13.899 2°55.625 197.3 4.5 10 -999
2007-08-08 08:38:11 51°13.905 2°55.627 200.7 4.3 14 -999
2007-08-08 08:38:16 51°13.911 2°55.63 204 4.1 17 -999
2007-08-08 08:38:21 51°13.916 2°55.633 208.3 4 20 -999
2007-08-08 08:38:26 51°13.921 2°55.636 210.9 3.8 23 -999
2007-08-08 08:38:32 51°13.926 2°55.641 214.3 3.6 26 -999
2007-08-08 08:38:37 51°13.93 2°55.644 217.6 3.4 30 -999
2007-08-08 08:38:41 51°13.933 2°55.647 220.8 3.3 32 -999
2007-08-08 08:38:46 51°13.937 2°55.652 223.6 3.1 36 -999
2007-08-08 08:38:51 51°13.94 2°55.656 226 3 36 -999
2007-08-08 08:38:57 51°13.943 2°55.66 228.1 2.6 41 -999
2007-08-08 08:39:02 51°13.946 2°55.664 231.1 2.3 41 -999
2007-08-08 08:39:06 51°13.947 2°55.666 232.9 2 44 4.8
2007-08-08 08:39:11 51°13.949 2°55.668 234.8 1.4 39 12.6
2007-08-08 08:39:16 51°13.949 2°55.669 236.2 0.6 36 12.6
2007-08-08 08:39:21 51°13.95 2°55.668 239.6 0.6 283 12.7
2007-08-08 08:39:26 51°13.949 2°55.665 244.9 1.4 260 12.7
2007-08-08 08:39:31 51°13.949 2°55.661 251.8 1.7 265 12.8
2007-08-08 08:39:36 51°13.949 2°55.657 260.8 1.8 273 -999
2007-08-08 08:39:42 51°13.95 2°55.652 270 1.9 275 4.7
2007-08-08 08:39:46 51°13.95 2°55.649 275.8 2 283 4.7
2007-08-08 08:39:51 51°13.951 2°55.644 280 2.2 284 12.8
2007-08-08 08:39:56 51°13.952 2°55.638 284.8 2.5 290 12.8
2007-08-08 08:40:01 51°13.954 2°55.633 289.2 2.8 294 13
2007-08-08 08:40:07 51°13.956 2°55.626 296.2 3.2 301 13.1
2007-08-08 08:40:11 51°13.959 2°55.62 302.2 3.5 304 13.1
2007-08-08 08:40:16 51°13.962 2°55.614 307.1 3.9 311 12.7
2007-08-08 08:40:21 51°13.966 2°55.607 314.6 4.3 314 12.6
2007-08-08 08:40:27 51°13.972 2°55.598 319 4.8 316 12.8
2007-08-08 08:40:31 51°13.976 2°55.592 321.1 5.2 317 12.7
2007-08-08 08:40:36 51°13.982 2°55.584 322.4 5.6 319 12.5
2007-08-08 08:40:41 51°13.988 2°55.575 323.7 5.9 320 12.7
2007-08-08 08:40:46 51°13.995 2°55.567 325.1 6.3 322 12.8
2007-08-08 08:40:51 51°14.003 2°55.558 326.5 6.5 323 12.6
2007-08-08 08:40:56 51°14.01 2°55.55 327.4 6.8 322 12.6
2007-08-08 08:41:01 51°14.018 2°55.54 327.3 7 323 12.4
2007-08-08 08:41:06 51°14.026 2°55.531 327.2 7.2 322 12.6
2007-08-08 08:41:11 51°14.034 2°55.521 328 7.3 324 12.7
2007-08-08 08:41:16 51°14.042 2°55.511 329.1 7.5 324 12.7
2007-08-08 08:41:21 51°14.051 2°55.502 329.5 7.6 325 12.7
2007-08-08 08:41:26 51°14.06 2°55.493 329.9 7.7 326 12.8
2007-08-08 08:41:31 51°14.069 2°55.483 330.8 7.8 327 12.9
2007-08-08 08:41:36 51°14.078 2°55.474 332.1 7.9 328 12.8
2007-08-08 08:41:41 51°14.088 2°55.464 332.7 8 328 12.8
2007-08-08 08:41:46 51°14.097 2°55.455 332.8 8.1 328 12.7
2007-08-08 08:41:51 51°14.107 2°55.446 332.8 8.1 329 12.7
2007-08-08 08:41:56 51°14.116 2°55.436 333.3 8.1 329 12.8
2007-08-08 08:42:01 51°14.126 2°55.427 333.6 8.2 329 -999
2007-08-08 08:42:06 51°14.136 2°55.417 333.6 8.2 328 12.6
2007-08-08 08:42:11 51°14.145 2°55.407 332.6 8.2 328 12.7
2007-08-08 08:42:16 51°14.155 2°55.397 332.1 8.2 326 -999
2007-08-08 08:42:21 51°14.164 2°55.387 331.4 8.3 326 12.7
2007-08-08 08:42:27 51°14.175 2°55.374 330.4 8.3 325 12.7
2007-08-08 08:42:31 51°14.183 2°55.366 329.9 8.3 325 12.7
2007-08-08 08:42:36 51°14.192 2°55.355 329.7 8.4 323 12.7
2007-08-08 08:42:41 51°14.202 2°55.343 328.1 8.4 322 12.5
2007-08-08 08:42:47 51°14.212 2°55.329 326.6 8.4 320 12.7
2007-08-08 08:42:51 51°14.219 2°55.319 325.5 8.4 320 12.6
2007-08-08 08:42:56 51°14.228 2°55.307 324.6 8.4 318 12.7
2007-08-08 08:43:01 51°14.236 2°55.294 323.3 8.5 316 12.8
2007-08-08 08:43:06 51°14.245 2°55.281 321.4 8.5 315 12.6
2007-08-08 08:43:11 51°14.253 2°55.268 320.3 8.5 314 12.7
2007-08-08 08:43:16 51°14.261 2°55.254 319.1 8.5 313 12.3
2007-08-08 08:43:21 51°14.268 2°55.24 317.9 8.5 311 12.6
2007-08-08 08:43:26 51°14.276 2°55.225 316.9 8.5 311 12.5
2007-08-08 08:43:31 51°14.284 2°55.211 316.4 8.5 310 12.7
2007-08-08 08:43:36 51°14.291 2°55.196 316.1 8.5 310 12.7
2007-08-08 08:43:41 51°14.299 2°55.182 315.7 8.6 309 12.7
2007-08-08 08:43:46 51°14.306 2°55.167 314.4 8.4 307 12.6
2007-08-08 08:43:51 51°14.313 2°55.152 313.5 8.4 307 12.8
2007-08-08 08:43:56 51°14.32 2°55.137 312.9 8.5 307 13
2007-08-08 08:44:01 51°14.327 2°55.122 313.6 8.5 309 13
2007-08-08 08:44:06 51°14.335 2°55.108 314.7 8.4 309 12.8
2007-08-08 08:44:11 51°14.342 2°55.093 315 8.4 309 13
2007-08-08 08:44:16 51°14.349 2°55.079 315.4 8.4 310 12.8
2007-08-08 08:44:21 51°14.357 2°55.064 315.3 8.5 309 12.8
2007-08-08 08:44:27 51°14.366 2°55.046 315.3 8.6 309 12.7
2007-08-08 08:44:31 51°14.372 2°55.034 315.2 8.8 309 12.4
2007-08-08 08:44:36 51°14.38 2°55.019 315.5 8.7 309 12.4
2007-08-08 08:44:41 51°14.387 2°55.004 315.1 8.8 308 12.7
2007-08-08 08:44:47 51°14.397 2°54.985 314.1 9 309 12.5
2007-08-08 08:44:51 51°14.403 2°54.972 313.8 9.1 309 12.5
2007-08-08 08:44:56 51°14.411 2°54.957 313.8 9.2 310 12.8
2007-08-08 08:45:01 51°14.42 2°54.941 314.9 9.1 312 12.9
2007-08-08 08:45:06 51°14.429 2°54.926 316.3 9.3 312 13.1
2007-08-08 08:45:11 51°14.437 2°54.91 316.8 9.4 311 12.9
2007-08-08 08:45:16 51°14.446 2°54.895 315.7 9.3 313 12.8
2007-08-08 08:45:21 51°14.454 2°54.88 314.8 9.4 313 12.9
2007-08-08 08:45:26 51°14.463 2°54.865 315 9.4 313 12.7
2007-08-08 08:45:31 51°14.472 2°54.849 315.6 9.4 310 12.7
2007-08-08 08:45:36 51°14.48 2°54.833 314.7 9.2 309 11.7
2007-08-08 08:45:41 51°14.487 2°54.818 313 9 306 12
2007-08-08 08:45:46 51°14.494 2°54.802 310.8 9 307 12
2007-08-08 08:45:51 51°14.502 2°54.786 309.5 9 307 12
2007-08-08 08:45:56 51°14.51 2°54.771 309.5 9 309 11.9
2007-08-08 08:46:01 51°14.518 2°54.756 310.2 9.1 310 12.2
2007-08-08 08:46:06 51°14.526 2°54.74 311.4 9 312 12.5
2007-08-08 08:46:11 51°14.535 2°54.726 313 9 313 12.5
2007-08-08 08:46:16 51°14.543 2°54.711 314.7 9 312 12.2
2007-08-08 08:46:21 51°14.551 2°54.696 314.9 8.9 312 12.1
2007-08-08 08:46:26 51°14.559 2°54.682 315 9 311 12.3
2007-08-08 08:46:31 51°14.568 2°54.667 315 9 310 12.4
2007-08-08 08:46:36 51°14.575 2°54.651 313.2 9 308 12
2007-08-08 08:46:41 51°14.583 2°54.636 311 9.1 309 11.9
2007-08-08 08:46:47 51°14.592 2°54.617 310.8 9 307 11.7
2007-08-08 08:46:51 51°14.598 2°54.604 309.6 9 306 11.8
2007-08-08 08:46:56 51°14.606 2°54.588 308.4 8.9 306 11.9
2007-08-08 08:47:01 51°14.613 2°54.571 307.7 9.1 305 12
2007-08-08 08:47:06 51°14.62 2°54.555 307 9 304 11.8
2007-08-08 08:47:11 51°14.627 2°54.539 306.2 9 304 11.8
2007-08-08 08:47:16 51°14.634 2°54.522 306.2 9 305 11.9
2007-08-08 08:47:21 51°14.641 2°54.506 306.2 9 302 12
2007-08-08 08:47:26 51°14.647 2°54.489 306.2 9.2 302 12
2007-08-08 08:47:31 51°14.654 2°54.471 305.5 9.3 300 11.4
2007-08-08 08:47:36 51°14.66 2°54.453 303.4 9.3 298 11.8
2007-08-08 08:47:41 51°14.666 2°54.434 302.6 9.6 296 11.8
2007-08-08 08:47:46 51°14.672 2°54.414 300.8 9.8 296 11.4
2007-08-08 08:47:51 51°14.677 2°54.395 299 9.9 295 11.8
2007-08-08 08:47:56 51°14.683 2°54.375 297.7 10 295 11.8
2007-08-08 08:48:01 51°14.689 2°54.354 296.2 10.3 295 12
2007-08-08 08:48:06 51°14.694 2°54.333 296.1 10.3 293 12.1
2007-08-08 08:48:11 51°14.7 2°54.312 295.1 10.4 292 12.2
2007-08-08 08:48:16 51°14.706 2°54.291 294.8 10.4 294 12.3
2007-08-08 08:48:21 51°14.712 2°54.269 295.3 10.5 293 12.3
2007-08-08 08:48:26 51°14.717 2°54.248 294.7 10.4 294 12.1
2007-08-08 08:48:31 51°14.723 2°54.227 294.3 10.4 293 12.2
2007-08-08 08:48:36 51°14.728 2°54.205 294.5 10.6 294 12.1
2007-08-08 08:48:41 51°14.735 2°54.184 294.3 10.6 294 11.8
2007-08-08 08:48:47 51°14.742 2°54.158 294.8 10.8 295 11.9
2007-08-08 08:48:51 51°14.747 2°54.141 295.4 11 295 11.9
2007-08-08 08:48:56 51°14.754 2°54.118 295.9 11.3 295 11.9
2007-08-08 08:49:01 51°14.76 2°54.095 296.1 11.4 295 11.8
2007-08-08 08:49:07 51°14.769 2°54.067 296.1 11.5 295 11.8
2007-08-08 08:49:11 51°14.774 2°54.048 296.7 11.6 293 11.5
2007-08-08 08:49:16 51°14.78 2°54.025 295.9 11.8 295 11.9
2007-08-08 08:49:21 51°14.787 2°54 296.7 11.9 293 11.4
2007-08-08 08:49:27 51°14.795 2°53.972 295.8 12 294 11.6
2007-08-08 08:49:31 51°14.8 2°53.952 296.5 12.1 294 11.6
2007-08-08 08:49:36 51°14.807 2°53.928 296.7 12 294 11.4
2007-08-08 08:49:41 51°14.814 2°53.904 296.7 12.1 294 11.6
2007-08-08 08:49:46 51°14.821 2°53.879 297.1 12.1 295 11.5
2007-08-08 08:49:51 51°14.828 2°53.855 297.4 12.1 294 11.3
2007-08-08 08:49:56 51°14.835 2°53.83 297.6 12.2 294 11.2
2007-08-08 08:50:01 51°14.842 2°53.805 297.1 12.4 294 11.3
2007-08-08 08:50:06 51°14.849 2°53.781 297.5 12.1 295 10.9
2007-08-08 08:50:11 51°14.856 2°53.756 297.9 12.2 295 11.3
2007-08-08 08:50:16 51°14.863 2°53.731 298.3 12.3 294 11.2
2007-08-08 08:50:21 51°14.87 2°53.707 297.4 12.3 296 11.4
2007-08-08 08:50:26 51°14.877 2°53.682 297.8 12.3 294 11.4
2007-08-08 08:50:31 51°14.884 2°53.657 297.8 12.3 295 11.4
2007-08-08 08:50:36 51°14.892 2°53.633 298.3 12.3 295 11.6
2007-08-08 08:50:41 51°14.899 2°53.608 298.1 12.4 295 11.6
2007-08-08 08:50:46 51°14.906 2°53.583 298.1 12.5 295 11.6
2007-08-08 08:50:51 51°14.914 2°53.558 298.3 12.5 295 11.6
2007-08-08 08:50:56 51°14.921 2°53.533 298.1 12.4 295 11.6
2007-08-08 08:51:01 51°14.928 2°53.508 298.5 12.5 295 11.7
2007-08-08 08:51:07 51°14.937 2°53.478 298.3 12.5 296 11.6
2007-08-08 08:51:11 51°14.943 2°53.458 298.3 12.5 295 11.6
2007-08-08 08:51:16 51°14.95 2°53.433 297.8 12.5 296 11.6
2007-08-08 08:51:21 51°14.957 2°53.408 297.7 12.5 295 11.6
2007-08-08 08:51:27 51°14.966 2°53.379 297.6 12.4 296 11.5
2007-08-08 08:51:31 51°14.972 2°53.359 297.5 12.4 296 11.6
2007-08-08 08:51:36 51°14.979 2°53.334 298.3 12.3 293 11.6
2007-08-08 08:51:41 51°14.986 2°53.309 297 12.4 293 11.8
2007-08-08 08:51:46 51°14.993 2°53.284 296.2 12.4 293 11.9
2007-08-08 08:51:51 51°14.999 2°53.258 296.2 12.3 291 11.8
2007-08-08 08:51:56 51°15.005 2°53.233 294.4 12.3 292 11.7
2007-08-08 08:52:01 51°15.011 2°53.207 294.2 12.4 290 11.4
2007-08-08 08:52:06 51°15.017 2°53.181 293.2 12.2 291 11.5
2007-08-08 08:52:11 51°15.023 2°53.157 293.4 12.2 291 11.7
2007-08-08 08:52:16 51°15.029 2°53.131 293.7 12.1 291 11.6
2007-08-08 08:52:21 51°15.035 2°53.106 294 12.2 291 11.7
2007-08-08 08:52:26 51°15.041 2°53.081 293.9 12.2 292 11.6
2007-08-08 08:52:31 51°15.047 2°53.056 294 12.2 291 11.7
2007-08-08 08:52:36 51°15.054 2°53.031 293.7 12.3 291 12
2007-08-08 08:52:41 51°15.06 2°53.005 294 12.3 292 12
2007-08-08 08:52:46 51°15.066 2°52.98 294.2 12.2 292 12.2
2007-08-08 08:52:51 51°15.072 2°52.955 294.6 12.3 291 12.2
2007-08-08 08:52:56 51°15.079 2°52.93 294.2 12.3 291 12
2007-08-08 08:53:01 51°15.084 2°52.904 293.8 12.2 292 12.2
2007-08-08 08:53:07 51°15.092 2°52.874 293.6 12.3 290 12.2
2007-08-08 08:53:11 51°15.097 2°52.853 293.6 12.3 291 12.4
2007-08-08 08:53:16 51°15.103 2°52.828 293.7 12.4 292 12.4
2007-08-08 08:53:21 51°15.109 2°52.802 293.9 12.4 290 12.2
2007-08-08 08:53:27 51°15.117 2°52.772 293.2 12.3 292 12.2
2007-08-08 08:53:31 51°15.121 2°52.751 293.7 12.4 290 12.3
2007-08-08 08:53:36 51°15.127 2°52.725 293.2 12.3 291 12.1
2007-08-08 08:53:41 51°15.133 2°52.7 293.2 12.3 291 12.3
2007-08-08 08:53:46 51°15.14 2°52.675 293.2 12.4 293 12.2
2007-08-08 08:53:51 51°15.146 2°52.649 293.9 12.3 291 12
2007-08-08 08:53:56 51°15.152 2°52.624 293.4 12.4 292 12.4
2007-08-08 08:54:01 51°15.158 2°52.598 294.3 12.3 291 12.4
2007-08-08 08:54:07 51°15.166 2°52.568 293.9 12.4 291 12.5
2007-08-08 08:54:11 51°15.171 2°52.548 294.2 12.3 293 12.6
2007-08-08 08:54:16 51°15.177 2°52.523 294.7 12.2 290 12.5
2007-08-08 08:54:21 51°15.183 2°52.497 293.2 12.2 291 13
2007-08-08 08:54:26 51°15.189 2°52.472 293.8 12.2 290 12.7
2007-08-08 08:54:31 51°15.195 2°52.447 293 12.1 292 12.3
2007-08-08 08:54:36 51°15.201 2°52.422 293.7 12.2 292 12.5
2007-08-08 08:54:41 51°15.208 2°52.397 294.4 12.2 292 12.9
2007-08-08 08:54:46 51°15.214 2°52.371 294.3 12.3 291 13.1
2007-08-08 08:54:51 51°15.221 2°52.346 294.2 12.3 293 13
2007-08-08 08:54:56 51°15.226 2°52.321 294.2 12.3 290 13.2
2007-08-08 08:55:01 51°15.233 2°52.296 294.3 12.2 292 13.2
2007-08-08 08:55:06 51°15.239 2°52.271 293.7 12.1 292 12.9
2007-08-08 08:55:11 51°15.245 2°52.246 294.9 12.2 292 13.4
2007-08-08 08:55:16 51°15.251 2°52.221 294.4 12.3 292 13.2
2007-08-08 08:55:21 51°15.257 2°52.195 293.9 12.3 290 13.2
2007-08-08 08:55:27 51°15.264 2°52.165 294 12.2 290 13.3
2007-08-08 08:55:31 51°15.267 2°52.144 292.3 12.2 284 13
2007-08-08 08:55:36 51°15.271 2°52.118 288.4 12.2 286 13.2
2007-08-08 08:55:41 51°15.275 2°52.091 286.6 12.3 281 13.4
2007-08-08 08:55:46 51°15.278 2°52.065 284.6 12.3 285 13.4
2007-08-08 08:55:51 51°15.281 2°52.038 284.9 12.3 280 13.4
2007-08-08 08:55:56 51°15.285 2°52.012 283.3 12.2 281 13.3
2007-08-08 08:56:01 51°15.287 2°51.985 283.2 12.1 280 13.4
2007-08-08 08:56:07 51°15.29 2°51.953 282.3 12.2 278 13.8
2007-08-08 08:56:11 51°15.292 2°51.932 281.8 12.3 279 13.5
2007-08-08 08:56:16 51°15.294 2°51.905 280.8 12.4 278 13.5
2007-08-08 08:56:21 51°15.297 2°51.878 280.4 12.3 279 13.6
2007-08-08 08:56:26 51°15.3 2°51.851 280.8 12.3 279 13.7
2007-08-08 08:56:31 51°15.303 2°51.824 281.6 12.3 280 13.6
2007-08-08 08:56:36 51°15.306 2°51.798 282.2 12.4 281 13.7
2007-08-08 08:56:41 51°15.309 2°51.771 282.6 12.3 281 13.8
2007-08-08 08:56:46 51°15.312 2°51.744 283 12.3 279 13.8
2007-08-08 08:56:51 51°15.316 2°51.717 282.5 12.3 281 14
2007-08-08 08:56:56 51°15.318 2°51.691 282.8 12.1 280 13.7
2007-08-08 08:57:01 51°15.321 2°51.664 282.8 12.1 278 14
2007-08-08 08:57:06 51°15.324 2°51.638 280.9 12.2 281 14.1
2007-08-08 08:57:11 51°15.327 2°51.611 283.1 12.2 279 14.1
2007-08-08 08:57:16 51°15.329 2°51.585 282.3 12.2 279 14
2007-08-08 08:57:21 51°15.333 2°51.558 281.9 12.3 279 14
2007-08-08 08:57:27 51°15.336 2°51.526 281.5 12.2 280 13.8
2007-08-08 08:57:31 51°15.339 2°51.505 282.3 12.3 282 14
2007-08-08 08:57:36 51°15.341 2°51.478 282.5 12.3 278 14
2007-08-08 08:57:41 51°15.345 2°51.451 282.4 12.2 280 13.8
2007-08-08 08:57:46 51°15.348 2°51.425 281.4 12.1 282 13.7
2007-08-08 08:57:51 51°15.351 2°51.398 283.3 12.1 278 13.9
2007-08-08 08:57:56 51°15.354 2°51.372 282.5 12.3 280 13.9
2007-08-08 08:58:01 51°15.357 2°51.345 283.3 12.2 280 13.4
2007-08-08 08:58:06 51°15.36 2°51.319 282.4 12.1 281 13.6
2007-08-08 08:58:11 51°15.363 2°51.292 282.8 12.2 280 13.9
2007-08-08 08:58:16 51°15.366 2°51.266 282.8 12.2 281 14
2007-08-08 08:58:21 51°15.369 2°51.239 283 12.1 279 14.4
2007-08-08 08:58:27 51°15.373 2°51.207 282.8 12.3 282 14.7
2007-08-08 08:58:31 51°15.375 2°51.186 283 12.4 279 14.4
2007-08-08 08:58:36 51°15.378 2°51.159 282.4 12.2 282 14.2
2007-08-08 08:58:41 51°15.381 2°51.133 282.5 12.1 279 14.6
2007-08-08 08:58:46 51°15.384 2°51.107 282.5 12.1 280 14.5
2007-08-08 08:58:51 51°15.387 2°51.08 282.3 12.2 280 14.6
2007-08-08 08:58:56 51°15.39 2°51.054 282.3 12.1 281 14.6
2007-08-08 08:59:01 51°15.392 2°51.027 282.7 12.2 279 14.6
2007-08-08 08:59:06 51°15.396 2°51.001 281.5 12.1 281 14.5
2007-08-08 08:59:11 51°15.399 2°50.974 282.2 12.1 280 14.9
2007-08-08 08:59:16 51°15.402 2°50.948 283.2 12.2 281 14.6
2007-08-08 08:59:21 51°15.405 2°50.921 282.4 12.3 279 14.7
2007-08-08 08:59:26 51°15.408 2°50.894 283.3 12.3 283 14.7
2007-08-08 08:59:31 51°15.411 2°50.868 283 12.2 280 14.1
2007-08-08 08:59:36 51°15.415 2°50.842 283.7 12.1 282 14.2
2007-08-08 08:59:41 51°15.417 2°50.815 283.2 12.2 279 14.4
2007-08-08 08:59:46 51°15.421 2°50.789 282.9 12.1 281 14.5
2007-08-08 08:59:51 51°15.424 2°50.762 283.1 12.3 281 14.5
2007-08-08 08:59:56 51°15.428 2°50.736 283.5 12.3 283 14.7
2007-08-08 09:00:01 51°15.431 2°50.709 284.5 12.2 280 14.6
2007-08-08 09:00:06 51°15.434 2°50.683 283.6 12.2 282 14.8
2007-08-08 09:00:11 51°15.438 2°50.656 283.5 12.3 282 14.8
2007-08-08 09:00:16 51°15.441 2°50.629 283.8 12.2 282 14.7
2007-08-08 09:00:21 51°15.444 2°50.603 283.9 12.2 279 14.5
2007-08-08 09:00:27 51°15.448 2°50.571 282.3 12.2 281 14.4
2007-08-08 09:00:31 51°15.45 2°50.549 283 12.3 281 14.5
2007-08-08 09:00:36 51°15.453 2°50.523 283.3 12.2 281 14.5
2007-08-08 09:00:41 51°15.457 2°50.496 284.1 12.2 280 14.8
2007-08-08 09:00:46 51°15.46 2°50.469 283.6 12.2 282 14.4
2007-08-08 09:00:51 51°15.463 2°50.443 283.3 12.2 280 14.1
2007-08-08 09:00:56 51°15.466 2°50.416 283.5 12.2 280 14.2
2007-08-08 09:01:01 51°15.47 2°50.39 282.8 12.3 282 14.4
2007-08-08 09:01:06 51°15.473 2°50.363 283.3 12.2 281 14.5
2007-08-08 09:01:11 51°15.476 2°50.336 283.5 12.3 281 14.7
2007-08-08 09:01:16 51°15.479 2°50.31 283 12.3 281 14.7
2007-08-08 09:01:21 51°15.483 2°50.283 283.1 12.3 282 14.7
2007-08-08 09:01:26 51°15.486 2°50.256 283.5 12.3 280 14.8
2007-08-08 09:01:31 51°15.489 2°50.23 282.6 12.3 283 14.9
2007-08-08 09:01:36 51°15.492 2°50.203 283.1 12.3 281 14.6
2007-08-08 09:01:41 51°15.495 2°50.176 284.1 12.3 280 14.8
2007-08-08 09:01:46 51°15.498 2°50.15 282.9 12.2 281 14.4
2007-08-08 09:01:51 51°15.502 2°50.123 282.4 12.2 282 14.6
2007-08-08 09:01:56 51°15.505 2°50.096 283 12.4 282 14.5
2007-08-08 09:02:01 51°15.509 2°50.07 283.4 12.4 281 14.7
2007-08-08 09:02:06 51°15.512 2°50.043 283.3 12.3 283 14.4
2007-08-08 09:02:11 51°15.515 2°50.016 283.6 12.3 281 14.4
2007-08-08 09:02:16 51°15.519 2°49.989 283 12.4 283 14.4
2007-08-08 09:02:22 51°15.523 2°49.957 284 12.4 282 14.6
2007-08-08 09:02:26 51°15.526 2°49.936 283.4 12.5 284 14.7
2007-08-08 09:02:31 51°15.53 2°49.909 284.3 12.3 281 14.5
2007-08-08 09:02:36 51°15.534 2°49.882 283.7 12.4 282 14.9
2007-08-08 09:02:41 51°15.537 2°49.856 283.1 12.4 283 14.9
2007-08-08 09:02:47 51°15.541 2°49.823 284.6 12.4 282 14.8
2007-08-08 09:02:51 51°15.543 2°49.802 283 12.3 280 14.7
2007-08-08 09:02:56 51°15.547 2°49.775 282.7 12.3 281 14.4
2007-08-08 09:03:01 51°15.55 2°49.748 282.4 12.3 280 14.4
2007-08-08 09:03:06 51°15.554 2°49.722 282.8 12.3 283 14.7
2007-08-08 09:03:11 51°15.557 2°49.695 283.7 12.3 281 14.6
2007-08-08 09:03:16 51°15.56 2°49.668 282.8 12.4 281 14.8
2007-08-08 09:03:21 51°15.564 2°49.642 283 12.3 283 14.8
2007-08-08 09:03:26 51°15.567 2°49.615 283.9 12.3 280 14.8
2007-08-08 09:03:31 51°15.571 2°49.588 283.2 12.3 283 14.8
2007-08-08 09:03:36 51°15.574 2°49.562 283.3 12.2 280 14.8
2007-08-08 09:03:41 51°15.577 2°49.535 283.1 12.4 281 14.8
2007-08-08 09:03:46 51°15.58 2°49.508 282.3 12.2 281 14.4
2007-08-08 09:03:51 51°15.583 2°49.481 282.9 12.3 278 14.4
2007-08-08 09:03:56 51°15.585 2°49.455 281.6 12.3 280 14.4
2007-08-08 09:04:01 51°15.589 2°49.428 282.7 12.3 277 14.3
2007-08-08 09:04:06 51°15.591 2°49.401 282.1 12.3 282 14.3
2007-08-08 09:04:11 51°15.594 2°49.374 283 12.3 279 13.8
2007-08-08 09:04:16 51°15.598 2°49.348 282.5 12.3 284 13.7
2007-08-08 09:04:21 51°15.602 2°49.321 283.8 12.3 279 13.9
2007-08-08 09:04:26 51°15.605 2°49.295 283.7 12.3 281 13.8
2007-08-08 09:04:31 51°15.608 2°49.268 284 12.2 282 13.5
2007-08-08 09:04:36 51°15.612 2°49.242 283.5 12.2 282 13.6
2007-08-08 09:04:41 51°15.615 2°49.215 283.3 12.3 282 13.4
2007-08-08 09:04:47 51°15.619 2°49.183 284.1 12.2 280 13.2
2007-08-08 09:04:51 51°15.622 2°49.162 283.5 12.2 282 13.3
2007-08-08 09:04:56 51°15.625 2°49.136 283.6 12.1 281 13.1
2007-08-08 09:05:01 51°15.629 2°49.109 283.2 12.3 280 13
2007-08-08 09:05:07 51°15.633 2°49.078 283.5 12.1 283 12.3
2007-08-08 09:05:11 51°15.634 2°49.057 283 12.1 279 12
2007-08-08 09:05:16 51°15.637 2°49.03 281.4 12 280 12
2007-08-08 09:05:21 51°15.641 2°49.004 282.4 12.2 280 12.1
2007-08-08 09:05:26 51°15.644 2°48.978 283 12.2 284 12.1
2007-08-08 09:05:31 51°15.648 2°48.951 283.7 12.1 281 12.2
2007-08-08 09:05:36 51°15.651 2°48.925 282.6 12.1 280 12.4
2007-08-08 09:05:41 51°15.654 2°48.898 282.8 12.2 282 12.7
2007-08-08 09:05:46 51°15.656 2°48.872 283.3 12.3 279 12.3
2007-08-08 09:05:51 51°15.66 2°48.845 281.4 12.2 282 12.3
2007-08-08 09:05:56 51°15.663 2°48.819 283.5 12.2 281 12.5
2007-08-08 09:06:01 51°15.667 2°48.792 284.2 12.4 281 12.3
2007-08-08 09:06:06 51°15.67 2°48.765 282.8 12.3 281 12.6
2007-08-08 09:06:11 51°15.674 2°48.739 283.3 12.3 281 12.5
2007-08-08 09:06:16 51°15.677 2°48.712 283.4 12.3 282 12.5
2007-08-08 09:06:21 51°15.68 2°48.685 283.3 12.4 280 12.5
2007-08-08 09:06:26 51°15.684 2°48.659 282.3 12.3 283 12.5
2007-08-08 09:06:31 51°15.687 2°48.632 283.5 12.3 280 12.6
2007-08-08 09:06:36 51°15.69 2°48.605 283 12.4 283 12.8
2007-08-08 09:06:41 51°15.694 2°48.578 283.7 12.5 279 12.7
2007-08-08 09:06:47 51°15.698 2°48.546 283.7 12.5 285 12.8
2007-08-08 09:06:51 51°15.701 2°48.524 284.1 12.4 283 12.8
2007-08-08 09:06:56 51°15.705 2°48.497 284.3 12.5 282 12.8
2007-08-08 09:07:01 51°15.708 2°48.47 284.3 12.5 281 12.9
2007-08-08 09:07:07 51°15.713 2°48.438 283.3 12.3 282 12.8
2007-08-08 09:07:11 51°15.715 2°48.416 283.2 12.4 282 13.1
2007-08-08 09:07:16 51°15.719 2°48.39 283.3 12.3 283 13.1
2007-08-08 09:07:21 51°15.722 2°48.363 284.3 12.4 280 13.2
2007-08-08 09:07:27 51°15.727 2°48.331 283.1 12.5 284 13.4
2007-08-08 09:07:31 51°15.729 2°48.309 284.2 12.4 279 13.2
2007-08-08 09:07:36 51°15.733 2°48.282 282.2 12.4 283 13.4
2007-08-08 09:07:41 51°15.736 2°48.255 283.5 12.3 281 13.3
2007-08-08 09:07:46 51°15.74 2°48.229 283.5 12.4 282 13.6
2007-08-08 09:07:51 51°15.744 2°48.202 283.9 12.3 284 13.8
2007-08-08 09:07:56 51°15.748 2°48.175 285.6 12.4 282 14
2007-08-08 09:08:01 51°15.753 2°48.149 284.5 12.4 287 14.2
2007-08-08 09:08:06 51°15.757 2°48.122 286.4 12.4 283 14.5
2007-08-08 09:08:11 51°15.761 2°48.096 286.5 12.4 286 14.4
2007-08-08 09:08:16 51°15.766 2°48.069 286.7 12.4 285 14.8
2007-08-08 09:08:21 51°15.77 2°48.043 286.3 12.4 288 14.8
2007-08-08 09:08:26 51°15.775 2°48.017 286.4 12.4 285 14.8
2007-08-08 09:08:31 51°15.78 2°47.991 286.9 12.3 287 14.9
2007-08-08 09:08:36 51°15.784 2°47.965 287.5 12.3 284 15.4
2007-08-08 09:08:41 51°15.788 2°47.938 286.9 12.3 286 15.5
2007-08-08 09:08:46 51°15.793 2°47.913 285.9 12.2 285 15.7
2007-08-08 09:08:51 51°15.796 2°47.886 286.5 12.3 282 16
2007-08-08 09:08:56 51°15.8 2°47.86 285.2 12.3 284 15.8
2007-08-08 09:09:01 51°15.804 2°47.833 284.5 12.2 282 15.9
2007-08-08 09:09:07 51°15.81 2°47.803 283.4 12.1 290 16.1
2007-08-08 09:09:11 51°15.813 2°47.782 287.9 11.9 286 16.2
2007-08-08 09:09:16 51°15.819 2°47.757 289.2 12 288 16.3
2007-08-08 09:09:21 51°15.824 2°47.732 289.9 12.1 289 16.2
2007-08-08 09:09:27 51°15.831 2°47.702 290.7 12 290 16.3
2007-08-08 09:09:31 51°15.835 2°47.681 291.4 12 288 16.6
2007-08-08 09:09:36 51°15.839 2°47.655 290.2 12 283 16.7
2007-08-08 09:09:42 51°15.843 2°47.624 287 12 281 17
2007-08-08 09:09:47 51°15.847 2°47.598 284.3 12.1 281 17.3
2007-08-08 09:09:51 51°15.848 2°47.577 283.4 12.1 278 17.4
2007-08-08 09:09:56 51°15.851 2°47.55 280.9 12.1 279 17.4
2007-08-08 09:10:01 51°15.853 2°47.524 279.9 12.2 277 17.8
2007-08-08 09:10:06 51°15.856 2°47.497 280.1 12.1 278 17.8
2007-08-08 09:10:11 51°15.858 2°47.471 280.1 12.2 277 17.4
2007-08-08 09:10:16 51°15.86 2°47.444 279.2 12.1 278 17.6
2007-08-08 09:10:21 51°15.862 2°47.417 279.6 12.1 276 17.5
2007-08-08 09:10:26 51°15.865 2°47.391 278.5 12 276 17.6
2007-08-08 09:10:31 51°15.867 2°47.364 279.2 12.2 277 17.7
2007-08-08 09:10:36 51°15.869 2°47.338 279.8 12.1 278 17.7
2007-08-08 09:10:41 51°15.871 2°47.312 279.4 11.9 278 17.7
2007-08-08 09:10:46 51°15.874 2°47.285 279 12.1 277 17.9
2007-08-08 09:10:51 51°15.875 2°47.259 279.6 12.1 278 17.7
2007-08-08 09:10:56 51°15.878 2°47.232 279.1 12 277 17.5
2007-08-08 09:11:01 51°15.879 2°47.206 278.7 12.1 276 17.5
2007-08-08 09:11:07 51°15.882 2°47.174 278.3 12.1 280 17.8
2007-08-08 09:11:11 51°15.883 2°47.153 279.6 12 275 17.9
2007-08-08 09:11:16 51°15.885 2°47.127 277.7 12 281 17.8
2007-08-08 09:11:21 51°15.888 2°47.1 279.1 12.2 275 18.1
2007-08-08 09:11:27 51°15.891 2°47.068 278.5 12.1 282 18.1
2007-08-08 09:11:31 51°15.892 2°47.047 280 12.1 275 18.1
2007-08-08 09:11:36 51°15.895 2°47.02 278.7 12.2 281 18.3
2007-08-08 09:11:41 51°15.896 2°46.993 280.1 12.2 275 18.2
2007-08-08 09:11:46 51°15.9 2°46.967 278.9 12.2 279 18.4
2007-08-08 09:11:51 51°15.902 2°46.94 279.7 12.1 279 18.4
2007-08-08 09:11:56 51°15.904 2°46.914 280.7 12.2 277 18.4
2007-08-08 09:12:01 51°15.907 2°46.887 279.2 12.2 280 18.4
2007-08-08 09:12:07 51°15.91 2°46.855 280.4 12 277 18.3
2007-08-08 09:12:11 51°15.912 2°46.834 279.3 12.1 279 18.3
2007-08-08 09:12:16 51°15.914 2°46.808 279.3 12.1 279 18.3
2007-08-08 09:12:21 51°15.917 2°46.781 280.5 12.1 278 18.2
2007-08-08 09:12:26 51°15.919 2°46.755 279.2 12 283 18
2007-08-08 09:12:31 51°15.924 2°46.729 281.5 12.1 280 18.2
2007-08-08 09:12:36 51°15.927 2°46.703 282.8 12.1 286 17.9
2007-08-08 09:12:41 51°15.931 2°46.678 285.6 11.9 285 17.6
2007-08-08 09:12:46 51°15.937 2°46.653 286.9 12.1 288 17.8
2007-08-08 09:12:51 51°15.942 2°46.627 287.6 12.2 289 17.5
2007-08-08 09:12:56 51°15.947 2°46.601 289.6 12.3 289 17.3
2007-08-08 09:13:01 51°15.953 2°46.576 289.5 12.2 289 17.2
2007-08-08 09:13:06 51°15.958 2°46.551 290.2 12.1 288 17
2007-08-08 09:13:11 51°15.964 2°46.526 290.2 12.1 291 16.6
2007-08-08 09:13:16 51°15.97 2°46.501 290.8 12.1 290 16.6
2007-08-08 09:13:21 51°15.977 2°46.476 291.4 12.2 294 16.5
2007-08-08 09:13:27 51°15.984 2°46.446 292.6 12.1 290 16.1
2007-08-08 09:13:31 51°15.99 2°46.427 292.6 12.1 294 16.3
2007-08-08 09:13:36 51°15.996 2°46.401 293.9 12.1 292 16.3
2007-08-08 09:13:41 51°16.003 2°46.378 293.8 12 297 16
2007-08-08 09:13:46 51°16.01 2°46.353 295.1 12.1 292 15.9
2007-08-08 09:13:51 51°16.017 2°46.329 294 12.2 295 15.7
2007-08-08 09:13:56 51°16.024 2°46.305 294.8 12.1 296 15.6
2007-08-08 09:14:01 51°16.031 2°46.28 295.4 12.1 294 15.4
2007-08-08 09:14:07 51°16.039 2°46.25 294.6 12.2 295 15.1
2007-08-08 09:14:11 51°16.045 2°46.231 295 12.1 295 14.6
2007-08-08 09:14:16 51°16.051 2°46.207 295.4 12 293 14.6
2007-08-08 09:14:21 51°16.058 2°46.182 294.5 12 295 14.4
2007-08-08 09:14:27 51°16.067 2°46.153 295.1 12.1 295 13
2007-08-08 09:14:31 51°16.072 2°46.134 295.3 12.2 295 13
2007-08-08 09:14:36 51°16.079 2°46.109 294.8 12.1 293 12.7
2007-08-08 09:14:41 51°16.086 2°46.085 294.6 12.1 295 12.8
2007-08-08 09:14:47 51°16.094 2°46.056 294.5 12 294 12.9
2007-08-08 09:14:51 51°16.1 2°46.037 295 12.2 294 13.1
2007-08-08 09:14:56 51°16.107 2°46.012 295.8 12.2 293 13.1
2007-08-08 09:15:01 51°16.114 2°45.987 293.6 12.2 295 12.5
2007-08-08 09:15:06 51°16.121 2°45.963 294.3 12.1 294 12.7
2007-08-08 09:15:11 51°16.128 2°45.939 294.9 12.1 294 12.7
2007-08-08 09:15:16 51°16.134 2°45.914 295.3 12.1 294 12.9
2007-08-08 09:15:21 51°16.141 2°45.889 294.5 12.2 292 13.1
2007-08-08 09:15:27 51°16.149 2°45.859 293.6 12.2 293 12.7
2007-08-08 09:15:31 51°16.154 2°45.839 293.6 12.3 293 12.8
2007-08-08 09:15:36 51°16.161 2°45.814 294.7 12.3 293 12.9
2007-08-08 09:15:41 51°16.168 2°45.789 294.6 12.3 293 12.5
2007-08-08 09:15:46 51°16.175 2°45.764 294.6 12.3 294 12.9
2007-08-08 09:15:51 51°16.182 2°45.74 294.6 12.3 296 12.6
2007-08-08 09:15:56 51°16.19 2°45.715 296.4 12.3 298 12.6
2007-08-08 09:16:02 51°16.199 2°45.686 297.7 12.4 298 12.7
2007-08-08 09:16:06 51°16.206 2°45.667 298.7 12.3 299 12.2
2007-08-08 09:16:11 51°16.214 2°45.643 299.5 12.3 299 12.4
2007-08-08 09:16:16 51°16.223 2°45.619 299.7 12.4 300 12.4
2007-08-08 09:16:21 51°16.231 2°45.595 301.2 12.4 300 11.9
2007-08-08 09:16:27 51°16.242 2°45.567 300.9 12.4 300 11.9
2007-08-08 09:16:31 51°16.248 2°45.548 300.7 12.5 300 12
2007-08-08 09:16:36 51°16.257 2°45.524 300.8 12.4 299 12.1
2007-08-08 09:16:41 51°16.266 2°45.5 300.9 12.4 300 12
2007-08-08 09:16:47 51°16.275 2°45.471 300.4 12.5 299 11.7
2007-08-08 09:16:51 51°16.283 2°45.452 300.4 12.4 301 11.8
2007-08-08 09:16:56 51°16.291 2°45.428 301.1 12.5 299 12
2007-08-08 09:17:01 51°16.3 2°45.405 300.4 12.5 301 12.3
2007-08-08 09:17:06 51°16.308 2°45.38 301.2 12.6 301 12.5
2007-08-08 09:17:11 51°16.317 2°45.356 301.3 12.6 300 12.6
2007-08-08 09:17:16 51°16.326 2°45.332 300.7 12.5 300 12.3
2007-08-08 09:17:21 51°16.335 2°45.308 301.2 12.5 300 12.7
2007-08-08 09:17:26 51°16.344 2°45.285 300.8 12.5 301 12.7
2007-08-08 09:17:31 51°16.352 2°45.26 301.8 12.6 299 12.6
2007-08-08 09:17:36 51°16.362 2°45.237 301.3 12.5 302 12.6
2007-08-08 09:17:41 51°16.371 2°45.212 301.4 12.6 301 12.8
2007-08-08 09:17:46 51°16.38 2°45.189 301.6 12.7 300 13
2007-08-08 09:17:51 51°16.388 2°45.164 301.2 12.5 300 12.7
2007-08-08 09:17:56 51°16.397 2°45.141 301.1 12.6 299 13.1
2007-08-08 09:18:01 51°16.406 2°45.116 300.2 12.6 301 13
2007-08-08 09:18:06 51°16.414 2°45.092 301.1 12.6 300 12.9
2007-08-08 09:18:11 51°16.423 2°45.068 300.6 12.6 301 12.8
2007-08-08 09:18:16 51°16.433 2°45.045 301.9 12.6 304 12.9
2007-08-08 09:18:22 51°16.444 2°45.017 303.6 12.7 302 12.9
2007-08-08 09:18:27 51°16.454 2°44.994 303.5 12.6 304 12.9
2007-08-08 09:18:31 51°16.462 2°44.975 304.4 12.6 301 12.9
2007-08-08 09:18:36 51°16.471 2°44.952 304.1 12.5 303 12.3
2007-08-08 09:18:41 51°16.481 2°44.928 304.2 12.5 303 12.3
2007-08-08 09:18:47 51°16.492 2°44.901 304.9 12.5 304 12.2
2007-08-08 09:18:51 51°16.5 2°44.882 304.8 12.4 304 11.8
2007-08-08 09:18:56 51°16.51 2°44.86 304.8 12.4 304 11.7
2007-08-08 09:19:01 51°16.519 2°44.837 305.2 12.5 303 11.8
2007-08-08 09:19:06 51°16.528 2°44.813 305.5 12.5 302 11.5
2007-08-08 09:19:11 51°16.538 2°44.79 303.9 12.3 302 11.5
2007-08-08 09:19:16 51°16.547 2°44.767 304.1 12.4 303 12.1
2007-08-08 09:19:21 51°16.557 2°44.744 304.4 12.6 304 12.2
2007-08-08 09:19:26 51°16.567 2°44.721 305.1 12.6 304 12.5
2007-08-08 09:19:31 51°16.576 2°44.698 304.7 12.6 305 12.7
2007-08-08 09:19:36 51°16.586 2°44.675 304.8 12.6 304 13
2007-08-08 09:19:41 51°16.596 2°44.652 304.5 12.7 305 13.2
2007-08-08 09:19:46 51°16.607 2°44.629 305.1 12.7 305 13.5
2007-08-08 09:19:51 51°16.617 2°44.606 306.1 12.7 305 13.6
2007-08-08 09:19:56 51°16.627 2°44.583 306.2 12.7 306 13.7
2007-08-08 09:20:01 51°16.637 2°44.56 306.7 12.7 305 13.9
2007-08-08 09:20:06 51°16.647 2°44.537 306.5 12.6 305 13.7
2007-08-08 09:20:11 51°16.657 2°44.515 306.2 12.6 305 14.2
2007-08-08 09:20:16 51°16.667 2°44.492 306.4 12.5 305 14.2
2007-08-08 09:20:22 51°16.679 2°44.465 306.9 12.6 306 15.1
2007-08-08 09:20:27 51°16.689 2°44.443 307 12.4 305 15
2007-08-08 09:20:31 51°16.696 2°44.424 307 12.4 304 15.6
2007-08-08 09:20:36 51°16.707 2°44.402 306.2 12.5 307 15.7
2007-08-08 09:20:41 51°16.716 2°44.379 307 12.5 305 15.9
2007-08-08 09:20:47 51°16.728 2°44.352 306.6 12.5 305 15.9
2007-08-08 09:20:51 51°16.736 2°44.334 305.9 12.5 306 16
2007-08-08 09:20:56 51°16.746 2°44.312 307 12.6 306 16.2
2007-08-08 09:21:01 51°16.757 2°44.289 306.9 12.6 305 16.1
2007-08-08 09:21:07 51°16.769 2°44.262 306.7 12.6 305 16.1
2007-08-08 09:21:11 51°16.777 2°44.243 306.6 12.7 305 16.4
2007-08-08 09:21:16 51°16.787 2°44.22 306.6 12.7 306 16.4
2007-08-08 09:21:21 51°16.797 2°44.198 306.5 12.6 306 16.3
2007-08-08 09:21:26 51°16.808 2°44.175 307 12.7 305 16.6
2007-08-08 09:21:31 51°16.818 2°44.152 306.3 12.6 305 16.4
2007-08-08 09:21:36 51°16.827 2°44.129 306.4 12.7 305 16.6
2007-08-08 09:21:41 51°16.838 2°44.106 306.1 12.7 305 16.4
2007-08-08 09:21:46 51°16.847 2°44.083 306.1 12.6 306 16.4
2007-08-08 09:21:51 51°16.858 2°44.061 306.2 12.6 304 16.5
2007-08-08 09:21:56 51°16.868 2°44.038 305.5 12.5 306 16.5
2007-08-08 09:22:01 51°16.878 2°44.015 306.8 12.6 304 16.7
2007-08-08 09:22:06 51°16.888 2°43.993 306.5 12.5 307 16.6
2007-08-08 09:22:11 51°16.897 2°43.97 306.4 12.5 303 16.4
2007-08-08 09:22:16 51°16.908 2°43.948 305.7 12.5 307 16.3
2007-08-08 09:22:21 51°16.918 2°43.925 306.8 12.5 304 16.6
2007-08-08 09:22:26 51°16.928 2°43.903 306.2 12.5 306 16.9
2007-08-08 09:22:31 51°16.938 2°43.88 306.9 12.5 305 16.8
2007-08-08 09:22:36 51°16.948 2°43.858 306.7 12.5 305 16.5
2007-08-08 09:22:41 51°16.958 2°43.835 305.9 12.4 305 16.4
2007-08-08 09:22:47 51°16.97 2°43.808 306.6 12.5 305 16.2
2007-08-08 09:22:51 51°16.978 2°43.79 306.3 12.6 307 16.2
2007-08-08 09:22:56 51°16.988 2°43.768 306.9 12.5 305 16.1
2007-08-08 09:23:01 51°16.998 2°43.745 307 12.5 305 16.4
2007-08-08 09:23:07 51°17.01 2°43.719 306.8 12.4 306 15.9
2007-08-08 09:23:11 51°17.018 2°43.7 306.6 12.4 305 15.9
2007-08-08 09:23:16 51°17.028 2°43.678 306.2 12.4 307 15.9
2007-08-08 09:23:21 51°17.038 2°43.655 307.5 12.3 304 15.7
2007-08-08 09:23:27 51°17.05 2°43.629 306.6 12.4 305 16.2
2007-08-08 09:23:31 51°17.057 2°43.61 307.1 12.3 304 15.9
2007-08-08 09:23:36 51°17.067 2°43.588 306.4 12.4 305 16.1
2007-08-08 09:23:41 51°17.077 2°43.566 306.7 12.3 307 16.1
2007-08-08 09:23:47 51°17.089 2°43.54 307.2 12.3 306 16
2007-08-08 09:23:51 51°17.097 2°43.523 307.3 12.3 306 16.4
2007-08-08 09:23:56 51°17.107 2°43.5 307.8 12.4 305 16
2007-08-08 09:24:01 51°17.118 2°43.478 307.1 12.2 307 15.7
2007-08-08 09:24:06 51°17.127 2°43.457 307 12.2 307 15.8
2007-08-08 09:24:11 51°17.138 2°43.435 307.4 12.3 306 15.7
2007-08-08 09:24:16 51°17.148 2°43.413 307.1 12.3 307 15.8
2007-08-08 09:24:21 51°17.158 2°43.391 307.7 12.4 305 15.9
2007-08-08 09:24:26 51°17.169 2°43.369 307.6 12.4 309 15.8
2007-08-08 09:24:31 51°17.179 2°43.347 308.6 12.3 305 15.1
2007-08-08 09:24:36 51°17.19 2°43.326 307.4 12.4 308 14.6
2007-08-08 09:24:41 51°17.199 2°43.303 308.2 12.4 307 14.1
2007-08-08 09:24:47 51°17.212 2°43.277 307.2 12.4 307 13.3
2007-08-08 09:24:51 51°17.22 2°43.259 307.2 12.3 306 12.1
2007-08-08 09:24:56 51°17.23 2°43.237 307.7 12.2 307 13.8
2007-08-08 09:25:01 51°17.24 2°43.215 307.1 12.4 306 14.3
2007-08-08 09:25:07 51°17.252 2°43.189 307.3 12.2 306 13.9
2007-08-08 09:25:11 51°17.259 2°43.171 307 12.1 305 13.5
2007-08-08 09:25:16 51°17.27 2°43.15 307 12.1 308 13.2
2007-08-08 09:25:21 51°17.279 2°43.127 307.7 12.2 304 13
2007-08-08 09:25:27 51°17.291 2°43.101 306.4 12.1 305 13.2
2007-08-08 09:25:31 51°17.3 2°43.084 307.6 12.3 307 13
2007-08-08 09:25:36 51°17.31 2°43.062 307.8 12.2 308 12.2
2007-08-08 09:25:41 51°17.32 2°43.04 307.7 12.3 306 11.8
2007-08-08 09:25:47 51°17.332 2°43.014 307.5 12.3 308 11.6
2007-08-08 09:25:51 51°17.341 2°42.998 308.4 12.3 308 11.7
2007-08-08 09:25:56 51°17.351 2°42.975 308.9 12.2 305 11.5
2007-08-08 09:26:01 51°17.361 2°42.954 307.6 12.2 307 12
2007-08-08 09:26:07 51°17.373 2°42.929 308 12.1 307 11.9
2007-08-08 09:26:11 51°17.382 2°42.912 308.4 12.1 306 11.9
2007-08-08 09:26:16 51°17.392 2°42.89 308.1 12.3 308 11.8
2007-08-08 09:26:21 51°17.402 2°42.868 307.9 12.3 307 11.1
2007-08-08 09:26:26 51°17.412 2°42.847 307.7 12.2 304 11.7
2007-08-08 09:26:31 51°17.422 2°42.825 306.2 12.2 307 13.1
2007-08-08 09:26:36 51°17.432 2°42.803 307.9 12.4 307 13.9
2007-08-08 09:26:41 51°17.442 2°42.781 307.6 12.4 307 14.1
2007-08-08 09:26:46 51°17.453 2°42.759 307.1 12.5 307 14.1
2007-08-08 09:26:51 51°17.463 2°42.737 306.9 12.4 307 14.4
2007-08-08 09:26:56 51°17.474 2°42.716 307 12.4 307 15.2
2007-08-08 09:27:01 51°17.484 2°42.694 306.9 12.3 306 16.2
2007-08-08 09:27:07 51°17.496 2°42.667 307.3 12.4 305 18.3
2007-08-08 09:27:11 51°17.504 2°42.649 306.5 12.3 305 20
2007-08-08 09:27:16 51°17.514 2°42.627 306.3 12.3 305 21.1
2007-08-08 09:27:21 51°17.524 2°42.605 307 12.3 307 21.6
2007-08-08 09:27:27 51°17.536 2°42.579 306.7 12.3 307 22.1
2007-08-08 09:27:31 51°17.545 2°42.561 307.4 12.4 307 22.7
2007-08-08 09:27:36 51°17.555 2°42.539 307.7 12.4 307 23
2007-08-08 09:27:41 51°17.565 2°42.517 307.3 12.5 307 23.4
2007-08-08 09:27:47 51°17.578 2°42.49 307.2 12.6 307 23.9
2007-08-08 09:27:51 51°17.586 2°42.472 307.2 12.6 306 23.9
2007-08-08 09:27:56 51°17.597 2°42.45 307.1 12.6 306 24.5
2007-08-08 09:28:01 51°17.607 2°42.428 306.9 12.6 308 24.6
2007-08-08 09:28:07 51°17.62 2°42.401 307.3 12.5 306 24.4
2007-08-08 09:28:11 51°17.628 2°42.383 307.9 12.5 305 24.7
2007-08-08 09:28:16 51°17.639 2°42.361 306.6 12.5 308 24.5
2007-08-08 09:28:21 51°17.649 2°42.338 307 12.5 307 24.6
2007-08-08 09:28:26 51°17.659 2°42.316 307.8 12.6 306 24.7
2007-08-08 09:28:31 51°17.67 2°42.294 307.5 12.6 307 24.7
2007-08-08 09:28:36 51°17.68 2°42.272 307 12.7 307 24.8
2007-08-08 09:28:41 51°17.691 2°42.249 307.3 12.7 308 24.7
2007-08-08 09:28:46 51°17.702 2°42.227 307 12.6 308 24.9
2007-08-08 09:28:51 51°17.712 2°42.205 307.4 12.6 306 25
2007-08-08 09:28:56 51°17.723 2°42.183 307.1 12.7 308 25.3
2007-08-08 09:29:01 51°17.733 2°42.16 307.7 12.6 305 25.2
2007-08-08 09:29:07 51°17.746 2°42.134 306.7 12.7 308 25.2
2007-08-08 09:29:11 51°17.754 2°42.116 307.1 12.6 307 24.8
2007-08-08 09:29:16 51°17.765 2°42.094 307 12.7 308 25
2007-08-08 09:29:21 51°17.776 2°42.072 307.2 12.6 307 24.9
2007-08-08 09:29:27 51°17.788 2°42.045 307.5 12.6 308 25.2
2007-08-08 09:29:31 51°17.797 2°42.027 307.3 12.6 308 25
2007-08-08 09:29:36 51°17.808 2°42.005 307.8 12.8 309 25
2007-08-08 09:29:41 51°17.818 2°41.983 307.7 12.8 309 25
2007-08-08 09:29:46 51°17.829 2°41.961 307.7 12.7 307 25.3
2007-08-08 09:29:51 51°17.84 2°41.939 307.1 12.7 309 25.6
2007-08-08 09:29:56 51°17.851 2°41.916 308.1 12.8 308 25.6
2007-08-08 09:30:01 51°17.862 2°41.894 307.6 12.8 308 25.5
2007-08-08 09:30:07 51°17.874 2°41.867 307.4 12.7 307 25.6
2007-08-08 09:30:11 51°17.883 2°41.849 307.7 12.6 308 25.1
2007-08-08 09:30:16 51°17.894 2°41.828 307.2 12.6 308 25.5
2007-08-08 09:30:21 51°17.905 2°41.806 307.7 12.7 309 25.4
2007-08-08 09:30:27 51°17.918 2°41.779 307.8 12.7 308 25.3
2007-08-08 09:30:31 51°17.927 2°41.762 308.1 12.8 307 25.4
2007-08-08 09:30:36 51°17.938 2°41.739 308.1 12.8 309 25.3
2007-08-08 09:30:41 51°17.949 2°41.717 307.2 12.7 308 25
2007-08-08 09:30:46 51°17.959 2°41.694 307.8 12.7 306 25
2007-08-08 09:30:51 51°17.97 2°41.672 306.9 12.8 308 25
2007-08-08 09:30:56 51°17.98 2°41.649 307.1 12.7 306 24.6
2007-08-08 09:31:01 51°17.991 2°41.627 306.1 12.8 309 24.7
2007-08-08 09:31:06 51°18.001 2°41.604 307 12.8 307 24.3
2007-08-08 09:31:11 51°18.012 2°41.582 306.2 12.7 308 24.2
2007-08-08 09:31:16 51°18.023 2°41.559 306.7 12.7 306 24.2
2007-08-08 09:31:21 51°18.034 2°41.537 306.2 12.7 310 24.4
2007-08-08 09:31:27 51°18.046 2°41.51 307.7 12.8 306 24.2
2007-08-08 09:31:31 51°18.054 2°41.492 306.7 12.7 306 24
2007-08-08 09:31:36 51°18.066 2°41.47 306.2 12.8 307 24
2007-08-08 09:31:41 51°18.076 2°41.448 306.5 12.8 309 23
2007-08-08 09:31:46 51°18.087 2°41.425 307.5 12.7 307 23.1
2007-08-08 09:31:51 51°18.098 2°41.403 307.1 12.8 307 23.7
2007-08-08 09:31:56 51°18.109 2°41.381 307.2 12.8 309 23.5
2007-08-08 09:32:02 51°18.121 2°41.353 307.7 12.7 306 23.3
2007-08-08 09:32:07 51°18.131 2°41.33 307.4 12.7 305 23.1
2007-08-08 09:32:11 51°18.14 2°41.312 305.8 12.6 306 23.1
2007-08-08 09:32:16 51°18.15 2°41.29 306.2 12.4 307 22.5
2007-08-08 09:32:22 51°18.162 2°41.263 307.2 12.5 306 22.4
2007-08-08 09:32:27 51°18.173 2°41.241 306.7 12.4 308 21.6
2007-08-08 09:32:31 51°18.18 2°41.224 307.4 12.4 305 19.7
2007-08-08 09:32:36 51°18.191 2°41.202 307.4 12.4 307 20.4
2007-08-08 09:32:41 51°18.201 2°41.18 307.4 12.4 308 21.3
2007-08-08 09:32:47 51°18.213 2°41.153 307.7 12.5 306 21.3
2007-08-08 09:32:51 51°18.222 2°41.136 307.1 12.4 309 21.5
2007-08-08 09:32:56 51°18.233 2°41.114 308.1 12.4 307 21.3
2007-08-08 09:33:01 51°18.243 2°41.093 307.8 12.5 308 21.1
2007-08-08 09:33:06 51°18.253 2°41.07 308 12.4 307 20.8
2007-08-08 09:33:11 51°18.264 2°41.049 307.4 12.5 307 20.5
2007-08-08 09:33:16 51°18.274 2°41.027 307.9 12.4 306 19.9
2007-08-08 09:33:21 51°18.285 2°41.005 307.8 12.4 308 19.8
2007-08-08 09:33:27 51°18.297 2°40.979 307.6 12.2 306 18.2
2007-08-08 09:33:31 51°18.306 2°40.962 307.4 12.3 308 16.5
2007-08-08 09:33:36 51°18.316 2°40.94 308.1 12.3 307 17.7
2007-08-08 09:33:41 51°18.327 2°40.92 307.5 12.4 310 16.5
2007-08-08 09:33:46 51°18.336 2°40.897 308.1 12.1 306 17
2007-08-08 09:33:51 51°18.346 2°40.876 307.4 12.1 307 17.4
2007-08-08 09:33:56 51°18.356 2°40.855 307.3 12.1 308 17.3
2007-08-08 09:34:02 51°18.369 2°40.829 308 12.2 308 14.8
2007-08-08 09:34:06 51°18.377 2°40.812 307.7 12.1 307 15
2007-08-08 09:34:11 51°18.387 2°40.791 307.2 12.1 307 17
2007-08-08 09:34:16 51°18.397 2°40.769 307.2 12.3 306 18.9
2007-08-08 09:34:22 51°18.41 2°40.743 307 12.3 308 19.9
2007-08-08 09:34:27 51°18.42 2°40.72 307.7 12.4 305 20.2
2007-08-08 09:34:31 51°18.428 2°40.703 306.4 12.5 307 20.3
2007-08-08 09:34:36 51°18.439 2°40.681 307.1 12.4 308 20.5
2007-08-08 09:34:41 51°18.449 2°40.659 307.9 12.4 307 21.2
2007-08-08 09:34:47 51°18.462 2°40.633 307.7 12.3 307 19.8
2007-08-08 09:34:51 51°18.471 2°40.617 307.7 12.2 309 15.3
2007-08-08 09:34:56 51°18.481 2°40.595 308.6 12.2 307 15.5
2007-08-08 09:35:01 51°18.492 2°40.574 307.7 12.3 310 17.7
2007-08-08 09:35:07 51°18.504 2°40.547 308.4 12.4 307 19.1
2007-08-08 09:35:11 51°18.512 2°40.53 307.8 12.4 308 19.6
2007-08-08 09:35:16 51°18.523 2°40.509 307.3 12.4 306 19
2007-08-08 09:35:21 51°18.533 2°40.486 306.6 12.4 308 17.2
2007-08-08 09:35:26 51°18.544 2°40.465 306.7 12.4 307 12.7
2007-08-08 09:35:31 51°18.555 2°40.444 306.8 12.2 309 14.6
2007-08-08 09:35:36 51°18.565 2°40.422 307.8 12.2 308 15
2007-08-08 09:35:41 51°18.575 2°40.401 308.4 12.2 307 13
2007-08-08 09:35:46 51°18.586 2°40.38 307.3 12.1 308 14.6
2007-08-08 09:35:51 51°18.595 2°40.358 307.6 12.1 305 18.4
2007-08-08 09:35:56 51°18.606 2°40.337 306.6 12.3 307 20.6
2007-08-08 09:36:01 51°18.616 2°40.315 306.7 12.3 307 22.1
2007-08-08 09:36:06 51°18.627 2°40.293 306.9 12.3 308 22.5
2007-08-08 09:36:11 51°18.636 2°40.271 307 12.2 306 23.1
2007-08-08 09:36:16 51°18.647 2°40.249 306.1 12.4 307 23.5
2007-08-08 09:36:22 51°18.659 2°40.223 306.1 12.3 308 23.6
2007-08-08 09:36:27 51°18.669 2°40.201 307 12.4 307 24.5
2007-08-08 09:36:31 51°18.678 2°40.183 307 12.4 306 24.4
2007-08-08 09:36:36 51°18.688 2°40.162 306.8 12.4 308 24.5
2007-08-08 09:36:41 51°18.699 2°40.14 307.5 12.3 307 25.7
2007-08-08 09:36:47 51°18.711 2°40.114 307.2 12.4 308 25.6
2007-08-08 09:36:51 51°18.719 2°40.096 307.4 12.4 307 25.5
2007-08-08 09:36:56 51°18.73 2°40.074 307.7 12.3 308 25.5
2007-08-08 09:37:01 51°18.74 2°40.052 307.7 12.4 306 25.8
2007-08-08 09:37:07 51°18.753 2°40.026 307.5 12.5 307 25.7
2007-08-08 09:37:11 51°18.76 2°40.008 307.2 12.3 305 25.2
2007-08-08 09:37:16 51°18.771 2°39.986 306.7 12.3 308 25.4
2007-08-08 09:37:21 51°18.782 2°39.965 307.5 12.5 307 24.8
2007-08-08 09:37:27 51°18.794 2°39.938 307.2 12.5 309 24.9
2007-08-08 09:37:31 51°18.802 2°39.921 307.7 12.5 306 25
2007-08-08 09:37:36 51°18.813 2°39.899 307 12.5 308 25
2007-08-08 09:37:41 51°18.824 2°39.877 307.6 12.5 306 25
2007-08-08 09:37:46 51°18.834 2°39.855 307.5 12.5 308 25.4
2007-08-08 09:37:51 51°18.844 2°39.832 307.4 12.6 306 25.2
2007-08-08 09:37:56 51°18.855 2°39.81 306.5 12.7 308 25.3
2007-08-08 09:38:01 51°18.865 2°39.788 307.4 12.6 307 25.2
2007-08-08 09:38:06 51°18.876 2°39.766 307.5 12.6 308 25.1
2007-08-08 09:38:11 51°18.887 2°39.744 307.6 12.6 308 25.2
2007-08-08 09:38:16 51°18.897 2°39.722 308.2 12.4 306 25.2
2007-08-08 09:38:22 51°18.91 2°39.695 306.9 12.6 307 25.6
2007-08-08 09:38:27 51°18.921 2°39.673 307.9 12.5 308 25.3
2007-08-08 09:38:31 51°18.929 2°39.655 307 12.6 306 25.2
2007-08-08 09:38:36 51°18.939 2°39.633 306.7 12.5 308 25.3
2007-08-08 09:38:41 51°18.95 2°39.611 307 12.6 309 25.5
2007-08-08 09:38:47 51°18.963 2°39.585 307.7 12.6 307 25.7
2007-08-08 09:38:51 51°18.971 2°39.566 307.4 12.7 306 25.7
2007-08-08 09:38:56 51°18.983 2°39.545 306.3 12.7 310 25.8
2007-08-08 09:39:01 51°18.993 2°39.522 308.2 12.7 307 26.1
2007-08-08 09:39:07 51°19.006 2°39.496 307.7 12.6 308 26.1
2007-08-08 09:39:11 51°19.014 2°39.478 307 12.4 308 26
2007-08-08 09:39:16 51°19.024 2°39.456 307.5 12.4 307 26.6
2007-08-08 09:39:21 51°19.035 2°39.434 307 12.5 308 26.6
2007-08-08 09:39:27 51°19.047 2°39.407 307.6 12.5 306 26.8
2007-08-08 09:39:31 51°19.056 2°39.389 306.5 12.6 306 27.1
2007-08-08 09:39:36 51°19.066 2°39.366 306.5 12.8 306 27.2
2007-08-08 09:39:41 51°19.077 2°39.344 306.2 12.7 309 27.5
2007-08-08 09:39:46 51°19.088 2°39.322 306.7 12.7 307 27.8
2007-08-08 09:39:51 51°19.098 2°39.299 306.9 12.6 307 27.9
2007-08-08 09:39:56 51°19.109 2°39.277 307.3 12.7 308 28.4
2007-08-08 09:40:01 51°19.119 2°39.255 307.3 12.7 307 28.4
2007-08-08 09:40:06 51°19.131 2°39.233 307.1 12.6 309 28.5
2007-08-08 09:40:11 51°19.14 2°39.21 307.6 12.6 306 28.8
2007-08-08 09:40:16 51°19.151 2°39.188 307 12.6 306 28.8
2007-08-08 09:40:21 51°19.161 2°39.165 306.5 12.4 307 28.8
2007-08-08 09:40:26 51°19.172 2°39.144 307 12.4 305 28.8
2007-08-08 09:40:31 51°19.181 2°39.121 306.2 12.4 306 29.1
2007-08-08 09:40:36 51°19.192 2°39.099 306.4 12.6 307 29.1
2007-08-08 09:40:41 51°19.203 2°39.077 306 12.5 308 29.3
2007-08-08 09:40:46 51°19.213 2°39.055 307.2 12.6 307 29.3
2007-08-08 09:40:51 51°19.224 2°39.032 307.9 12.5 306 29.5
2007-08-08 09:40:56 51°19.234 2°39.01 307 12.5 307 29.3
2007-08-08 09:41:02 51°19.247 2°38.983 307.6 12.7 306 29.3
2007-08-08 09:41:07 51°19.256 2°38.959 307.2 12.7 304 29.3
2007-08-08 09:41:11 51°19.265 2°38.942 306.3 12.7 306 28.8
2007-08-08 09:41:16 51°19.275 2°38.919 306.4 12.8 305 28.6
2007-08-08 09:41:21 51°19.286 2°38.897 307 12.6 307 28.7
2007-08-08 09:41:27 51°19.298 2°38.869 307.3 12.7 307 29.1
2007-08-08 09:41:31 51°19.307 2°38.851 308 12.7 307 29
2007-08-08 09:41:36 51°19.317 2°38.829 307.7 12.7 308 29
2007-08-08 09:41:41 51°19.328 2°38.806 307.8 12.8 305 29.1
2007-08-08 09:41:47 51°19.341 2°38.78 307.1 12.8 308 29
2007-08-08 09:41:51 51°19.349 2°38.761 307.9 12.8 306 29.1
2007-08-08 09:41:56 51°19.36 2°38.739 307.5 12.8 306 28.9
2007-08-08 09:42:01 51°19.371 2°38.716 307.7 12.8 307 28.5
2007-08-08 09:42:07 51°19.383 2°38.688 307.4 12.8 308 28.4
2007-08-08 09:42:11 51°19.392 2°38.67 307.5 12.7 307 27.8
2007-08-08 09:42:16 51°19.402 2°38.648 306.9 12.8 306 27.7
2007-08-08 09:42:21 51°19.413 2°38.625 307.2 12.7 307 27.2
2007-08-08 09:42:26 51°19.424 2°38.602 307 12.8 307 27
2007-08-08 09:42:31 51°19.435 2°38.58 307.1 12.8 309 26.9
2007-08-08 09:42:36 51°19.445 2°38.557 308.4 12.9 307 26.8
2007-08-08 09:42:41 51°19.456 2°38.534 308.1 12.8 306 26.2
2007-08-08 09:42:46 51°19.467 2°38.512 307 12.8 306 26.2
2007-08-08 09:42:51 51°19.477 2°38.488 307.6 12.7 305 26.4
2007-08-08 09:42:56 51°19.487 2°38.465 307.7 12.7 306 25.5
2007-08-08 09:43:02 51°19.5 2°38.438 306.5 12.7 306 25.4
2007-08-08 09:43:07 51°19.51 2°38.415 306.7 12.6 307 25.2
2007-08-08 09:43:11 51°19.518 2°38.397 307.6 12.6 306 24.6
2007-08-08 09:43:16 51°19.529 2°38.375 307.3 12.7 306 24.2
2007-08-08 09:43:21 51°19.539 2°38.352 307.5 12.7 306 24.1
2007-08-08 09:43:27 51°19.551 2°38.325 307.9 12.6 306 24
2007-08-08 09:43:31 51°19.56 2°38.307 307 12.7 306 24.6
2007-08-08 09:43:36 51°19.57 2°38.284 307.8 12.7 307 24.1
2007-08-08 09:43:41 51°19.581 2°38.262 308.2 12.7 304 24
2007-08-08 09:43:47 51°19.593 2°38.235 307.1 12.7 309 23.4
2007-08-08 09:43:51 51°19.601 2°38.216 307.7 12.7 306 23.5
2007-08-08 09:43:56 51°19.612 2°38.194 307.4 12.6 308 23.6
2007-08-08 09:44:01 51°19.622 2°38.172 308.1 12.6 305 22.8
2007-08-08 09:44:07 51°19.635 2°38.144 307.9 12.7 307 22.7
2007-08-08 09:44:11 51°19.643 2°38.126 307.9 12.6 306 22.9
2007-08-08 09:44:16 51°19.653 2°38.104 307.6 12.6 306 22.4
2007-08-08 09:44:21 51°19.664 2°38.081 307.4 12.6 305 22.1
2007-08-08 09:44:27 51°19.676 2°38.054 307 12.5 306 23.3
2007-08-08 09:44:31 51°19.684 2°38.036 307.6 12.5 306 23.6
2007-08-08 09:44:36 51°19.695 2°38.014 308 12.5 305 23.5
2007-08-08 09:44:41 51°19.705 2°37.991 306.7 12.6 308 23.8
2007-08-08 09:44:46 51°19.715 2°37.968 308.2 12.6 306 23.3
2007-08-08 09:44:51 51°19.726 2°37.946 307.4 12.6 307 21.6
2007-08-08 09:44:56 51°19.736 2°37.923 306.9 12.7 306 22.9
2007-08-08 09:45:02 51°19.748 2°37.896 307.1 12.6 305 23.3
2007-08-08 09:45:06 51°19.756 2°37.878 306.2 12.5 306 22.7
2007-08-08 09:45:11 51°19.767 2°37.856 306.2 12.5 308 22.1
2007-08-08 09:45:16 51°19.776 2°37.833 307.6 12.6 305 22.3
2007-08-08 09:45:21 51°19.787 2°37.811 307 12.5 308 23
2007-08-08 09:45:27 51°19.799 2°37.784 307.4 12.6 304 22.9
2007-08-08 09:45:31 51°19.808 2°37.767 306.6 12.6 309 23.3
2007-08-08 09:45:36 51°19.818 2°37.744 307.9 12.6 306 23.2
2007-08-08 09:45:41 51°19.83 2°37.723 307.7 12.5 309 23
2007-08-08 09:45:47 51°19.842 2°37.696 308.5 12.6 306 23.2
2007-08-08 09:45:51 51°19.85 2°37.678 308 12.6 307 22.8
2007-08-08 09:45:56 51°19.86 2°37.656 307.4 12.5 306 22.9
2007-08-08 09:46:01 51°19.871 2°37.633 307.7 12.6 304 23.4
2007-08-08 09:46:07 51°19.883 2°37.607 306.2 12.1 305 23.3
2007-08-08 09:46:11 51°19.889 2°37.59 306.2 11.1 301 23.4
2007-08-08 09:46:16 51°19.896 2°37.571 303.7 10.3 303 23.8
2007-08-08 09:46:21 51°19.903 2°37.552 303 9.3 299 23.4
2007-08-08 09:46:27 51°19.911 2°37.533 302.6 8.6 305 23.6
2007-08-08 09:46:31 51°19.915 2°37.521 302.6 7.8 299 23.5
2007-08-08 09:46:36 51°19.92 2°37.507 301.2 7.1 301 24
2007-08-08 09:46:41 51°19.925 2°37.494 300.9 6.6 297 24
2007-08-08 09:46:46 51°19.928 2°37.482 300.3 6.1 297 24.2
2007-08-08 09:46:51 51°19.932 2°37.47 299.1 5.6 294 23.7
2007-08-08 09:46:56 51°19.935 2°37.46 298.4 5.2 297 23.4
2007-08-08 09:47:02 51°19.939 2°37.448 298.9 4.9 296 22.3
2007-08-08 09:47:06 51°19.941 2°37.441 298.3 4.6 295 21.9
2007-08-08 09:47:11 51°19.943 2°37.432 297.1 4.3 291 21.7
2007-08-08 09:47:16 51°19.945 2°37.424 296.1 3.9 293 22.8
2007-08-08 09:47:21 51°19.947 2°37.417 295.5 3.6 289 22.9
2007-08-08 09:47:27 51°19.949 2°37.409 295.2 3.3 294 22.9
2007-08-08 09:47:31 51°19.95 2°37.403 294.7 3.3 291 23.2
2007-08-08 09:47:36 51°19.952 2°37.397 294.5 3.1 291 23.4
2007-08-08 09:47:42 51°19.953 2°37.39 294 2.9 291 23.8
2007-08-08 09:47:47 51°19.955 2°37.384 294.2 2.7 289 23.5
2007-08-08 09:47:52 51°19.956 2°37.379 293.9 2.5 292 23.9
2007-08-08 09:47:57 51°19.957 2°37.374 293.6 2.4 287 24
2007-08-08 09:48:02 51°19.958 2°37.37 293.8 2.2 290 23.8
2007-08-08 09:48:07 51°19.959 2°37.365 294.6 2.1 287 23.8
2007-08-08 09:48:12 51°19.96 2°37.361 295.7 2 296 23.8
2007-08-08 09:48:17 51°19.961 2°37.357 295.5 1.9 295 23.8
2007-08-08 09:48:22 51°19.962 2°37.353 295.4 1.8 290 23.4
2007-08-08 09:48:27 51°19.963 2°37.349 295.6 1.8 293 23
2007-08-08 09:48:32 51°19.964 2°37.346 296.4 1.7 291 23.3
2007-08-08 09:48:37 51°19.965 2°37.342 297.1 1.6 294 23.1
2007-08-08 09:48:42 51°19.965 2°37.339 297.6 1.6 293 23.1
2007-08-08 09:48:47 51°19.966 2°37.335 298 1.8 292 23.2
2007-08-08 09:48:52 51°19.967 2°37.331 297.8 2 293 22.9
2007-08-08 09:48:57 51°19.968 2°37.326 296.7 2.3 289 22.9
2007-08-08 09:49:02 51°19.97 2°37.321 296.4 2.5 296 22.5
2007-08-08 09:49:07 51°19.971 2°37.315 296.4 2.6 289 22.1
2007-08-08 09:49:12 51°19.973 2°37.309 296.6 2.8 291 21.5
2007-08-08 09:49:17 51°19.974 2°37.303 296.2 3 290 21.4
2007-08-08 09:49:22 51°19.976 2°37.297 296.3 3.1 293 21.7
2007-08-08 09:49:27 51°19.978 2°37.29 296.6 3.3 295 22
2007-08-08 09:49:32 51°19.98 2°37.283 296.6 3.4 295 22.5
2007-08-08 09:49:37 51°19.982 2°37.276 296.3 3.5 293 22.8
2007-08-08 09:49:42 51°19.984 2°37.268 295.8 3.7 291 23
2007-08-08 09:49:47 51°19.986 2°37.261 295.1 3.8 294 23.1
2007-08-08 09:49:52 51°19.988 2°37.253 294.5 4 292 22.9
2007-08-08 09:49:57 51°19.99 2°37.245 293.7 3.9 290 22.6
2007-08-08 09:50:02 51°19.992 2°37.236 292.5 4 289 23.1
2007-08-08 09:50:07 51°19.993 2°37.228 290.9 4.1 287 22.6
2007-08-08 09:50:12 51°19.995 2°37.219 289.6 4.2 288 22.8
2007-08-08 09:50:17 51°19.997 2°37.21 289.5 4.3 290 22.9
2007-08-08 09:50:22 51°19.999 2°37.2 290.2 4.4 289 23
2007-08-08 09:50:27 51°20.001 2°37.191 289.5 4.5 289 23.2
2007-08-08 09:50:32 51°20.003 2°37.182 290 4.4 290 23.3
2007-08-08 09:50:37 51°20.005 2°37.173 291.2 4.5 291 23.4
2007-08-08 09:50:42 51°20.008 2°37.164 292.7 4.5 294 23.2
2007-08-08 09:50:47 51°20.011 2°37.155 293.7 4.5 293 23.3
2007-08-08 09:50:52 51°20.013 2°37.146 294.6 4.5 296 23.2
2007-08-08 09:50:57 51°20.016 2°37.137 295.8 4.4 297 22.8
2007-08-08 09:51:02 51°20.019 2°37.128 296.2 4.3 295 22.4
2007-08-08 09:51:07 51°20.022 2°37.12 296.5 4.2 297 21.9
2007-08-08 09:51:12 51°20.025 2°37.112 298 4.1 302 21.8
2007-08-08 09:51:17 51°20.028 2°37.106 299.8 3.9 305 21.5
2007-08-08 09:51:22 51°20.03 2°37.099 301.3 3.6 304 21.3
2007-08-08 09:51:27 51°20.033 2°37.092 302.1 3.4 302 21
2007-08-08 09:51:32 51°20.035 2°37.086 302.6 3.3 304 20.3
2007-08-08 09:51:37 51°20.038 2°37.08 302.9 3.2 304 20.9
2007-08-08 09:51:42 51°20.04 2°37.075 303.2 3.1 307 21.5
2007-08-08 09:51:47 51°20.042 2°37.07 303.9 3 307 21.7
2007-08-08 09:51:52 51°20.045 2°37.064 304.2 2.9 305 22.5
2007-08-08 09:51:57 51°20.047 2°37.059 304.8 2.8 305 22.7
2007-08-08 09:52:02 51°20.049 2°37.055 305.1 2.8 308 23
2007-08-08 09:52:07 51°20.051 2°37.05 305.3 2.6 304 23.2
2007-08-08 09:52:12 51°20.053 2°37.046 304.8 2.5 304 22.8
2007-08-08 09:52:17 51°20.055 2°37.041 303.6 2.3 301 23.1
2007-08-08 09:52:22 51°20.056 2°37.037 301.3 2.2 302 23.2
2007-08-08 09:52:27 51°20.058 2°37.033 299.4 2 296 23.2
2007-08-08 09:52:32 51°20.059 2°37.029 297.6 2.1 297 23.1
2007-08-08 09:52:37 51°20.06 2°37.025 295.6 2.1 297 22.5
2007-08-08 09:52:42 51°20.061 2°37.021 293.3 2 294 21.9
2007-08-08 09:52:47 51°20.062 2°37.017 291.3 2 293 21.4
2007-08-08 09:52:52 51°20.062 2°37.013 288.8 1.9 280 20.5
2007-08-08 09:52:57 51°20.063 2°37.009 286.6 1.9 282 20.8
2007-08-08 09:53:02 51°20.064 2°37.005 285.5 1.7 283 21.4
2007-08-08 09:53:07 51°20.065 2°37.002 285.9 1.7 287 21.9
2007-08-08 09:53:12 51°20.066 2°36.998 286.4 1.8 288 22.2
2007-08-08 09:53:17 51°20.066 2°36.994 286.9 1.8 288 22.3
2007-08-08 09:53:22 51°20.067 2°36.99 287.4 1.7 288 22.8
2007-08-08 09:53:27 51°20.068 2°36.987 287.7 1.7 286 23.2
2007-08-08 09:53:32 51°20.068 2°36.983 288.1 1.7 282 23.3
2007-08-08 09:53:37 51°20.069 2°36.979 289.4 1.7 292 23.4
2007-08-08 09:53:42 51°20.07 2°36.976 291 1.7 290 23.7
2007-08-08 09:53:47 51°20.071 2°36.972 293.1 1.6 295 23.8